Regional Weather Roundup
Issued by NWS Kansas City/Pleasant Hill, MO

Home | Current Version | Previous Version | Text Only | Print | Product List | Glossary On
Versions: 1 2 3 4 5 6 7 8 9 10 11 12 13 14 15 16 17 18 19 20 21 22 23 24 25 26 27
000
ASUS43 KEAX 231410
RWREAX

WEATHER ROUNDUP FOR EASTERN KANSAS AND NORTHWEST MISSOURI
NATIONAL WEATHER SERVICE KANSAS CITY/PLEASANT HILL MO
900 AM CDT FRI JUN 23 2017

KSZ040-057-103>105-MOZ028-029-037-043-231500-
...KANSAS CITY METROPOLITAN AREA...

CITY           SKY/WX    TMP DP  RH WIND       PRES   REMARKS
K.C. INTL      CLOUDY    74  65  73 N18       29.86R
K.C. DOWNTOWN  CLOUDY    75  67  76 N16       29.83R
LEES SUMMIT    CLOUDY    73  69  87 N16       29.84R
OLATHE - IXD   CLOUDY    72  67  84 N16       29.86R
OLATHE - OJC   CLOUDY    72  68  87 N13       29.85R
LAWRENCE       CLOUDY    75  66  73 N8        29.87R

$$

MOZ001>008-011>017-020>025-030>033-038>040-044>046-053-054-231500-
...NORTHERN AND CENTRAL MISSOURI...

CITY           SKY/WX    TMP DP  RH WIND       PRES   REMARKS
ST. JOSEPH     SUNNY     75  64  68 N10       29.86R
WARRENSBURG    CLOUDY    72  68  88 N12       29.81R
WHITEMAN AFB   LGT RAIN  73  73 100 N15       29.79R
CLINTON        CLOUDY    75  75 100 NW6       29.78R
SEDALIA        CLOUDY    74  73  97 N10       29.80R
WARSAW         NOT AVBL
CHILLICOTHE      N/A     75  68  78 N9G17     29.84R
KIRKSVILLE     SUNNY     72  66  81 N15G23    29.82R

$$

MOZ041-047>049-056>058-063>065-088>090-097-231500-
...EASTERN AND SOUTHERN MISSOURI...

CITY           SKY/WX    TMP DP  RH WIND       PRES   REMARKS
ST. LOUIS INTL CLOUDY    82  71  69 CALM      29.68F
SPIRIT OF STL  CLOUDY    79  71  76 VRB3      29.65F
COLUMBIA       MOSUNNY   72  68  87 NW12      29.76R
JEFFERSON CITY CLOUDY    75  67  76 VRB7      29.75R
ROLLA          MOSUNNY   77  67  71 N6        29.75S
OSAGE BEACH    CLOUDY    75  72  88 E5        29.78R
SPRINGFIELD    MOSUNNY   79  74  84 NW7       29.77S
BRANSON        PTSUNNY   77  72  83 W5        29.79R
JOPLIN         MOSUNNY   81  76  84 W8        29.78R
WEST PLAINS    PTSUNNY   78  74  87 N5        29.76R

$$

IAZ060-094-KSZ022-034>040-054-083-096-NEZ052-066-093-231500-
...KANSAS...SOUTHEAST NEBRASKA AND IOWA...

CITY           SKY/WX    TMP DP  RH WIND       PRES   REMARKS
TOPEKA         MOSUNNY   75  66  73 N9        29.88R
MANHATTAN      PTSUNNY   73  58  59 N12       29.94R
EMPORIA        CLOUDY    74  64  71 N12G21    29.87R
CHANUTE        CLOUDY    77  72  84 N15G24    29.79R
WICHITA        CLOUDY    76  66  71 N14       29.89R
OMAHA          CLOUDY    67  49  52 NW16      29.95R
LINCOLN        CLOUDY    67  50  54 NW8       30.01R
FALLS CITY     SUNNY     70  57  63 N14       29.90R
LAMONI         MOSUNNY   71  62  73 N15       29.86R
DES MOINES     MOSUNNY   73  56  54 N5        29.85F

$$





USA.gov is the U.S. government's official web portal to all federal, state and local government web resources and services.